Location: Newberry Star Park
(29.6730°N, 82.6011°W)
Time: 15:57:20
(UTC-05:00)

Amateur Radio Satellites - All Passes

Search period start: 19 January 2018 15:27
Search period end: 20 January 2018 15:27
Location: Newberry Star Park, 29.6730°N, 82.6011°W

Satellite Date Start Highest point End Downlink Frequencies (MHz)
Time Altitude Azimuth
SO-50 19 Jan 15:46:38 15:51:23 77° 244° (WSW) 15:56:09 436.795
BEESAT 19 Jan 15:51:55 15:56:41 64° 101° (E) 16:01:25 436.000
ITAMSAT 1 19 Jan 15:54:08 15:59:15 68° 258° (WSW) 16:04:24 435.822/435.867
RS-15 19 Jan 15:54:18 16:01:05 17° 35° (NE) 16:07:40 29.354- 29.394
CUBESAT XI-V 19 Jan 15:57:01 16:01:00 29° 97° (E) 16:04:57 437.345
JUGNU 19 Jan 15:57:57 16:01:51 18° 195° (SSW) 16:05:46 437.505
MOZHAYETS 4 19 Jan 15:57:58 16:02:28 54° 284° (WNW) 16:06:56
M-CUBED/EXP-1 PRIME 19 Jan 16:06:28 16:10:47 47° 71° (ENE) 16:14:52 437.505
SRMSAT 19 Jan 16:13:24 16:18:40 32° 181° (S) 16:23:56 437.500
AO-7 19 Jan 16:19:35 16:26:56 35° 260° (W) 16:34:22 .
DOVE 4 19 Jan 16:38:03 16:42:29 81° 78° (ENE) 16:46:43 437.250
ITUPSAT 1 19 Jan 16:49:17 16:53:25 29° 289° (WNW) 16:57:32 437.325
LilacSat-2 19 Jan 17:00:53 17:03:15 16° 71° (ENE) 17:05:38 437.200
XW-2C 19 Jan 17:05:06 17:07:31 16° 71° (ENE) 17:09:56 145.795 - 145.815
CUTE-I 19 Jan 17:16:58 17:21:11 25° 69° (ENE) 17:25:24 437.470
NO-84 19 Jan 17:25:05 17:28:09 41° 311° (NW) 17:31:01 435.350 FM
CUBESAT XI-V 19 Jan 17:34:49 17:38:06 20° 290° (WNW) 17:41:23 437.345
KKS-1 19 Jan 17:38:18 17:42:39 54° 101° (E) 17:47:01 437.445
XW-2F 19 Jan 17:41:36 17:45:16 46° 76° (ENE) 17:48:56 145.980 - 146.000
KAITUO 1B 19 Jan 17:42:52 17:46:18 34° 75° (ENE) 17:49:45 145.475/437.950
M-CUBED/EXP-1 PRIME 19 Jan 17:43:37 17:45:09 12° 260° (W) 17:46:41 437.505
XW-2D 19 Jan 17:49:45 17:53:35 73° 77° (ENE) 17:57:24 145.860 - 145.880
NUDT-PHONESAT 19 Jan 17:56:30 18:00:07 50° 76° (ENE) 18:03:45 437.300
HO-68 19 Jan 17:58:37 18:05:02 37° 68° (ENE) 18:11:26 435.675
STARS 19 Jan 17:58:58 18:02:56 32° 99° (E) 18:06:54 437.465
SRMSAT 19 Jan 18:02:36 18:07:23 25° 191° (SSW) 18:12:11 437.500
RS-15 19 Jan 18:04:40 18:16:12 68° 60° (ENE) 18:27:07 29.354- 29.394
XW-2B 19 Jan 18:07:19 18:11:07 65° 259° (W) 18:14:56 145.730 - 145.750
SEEDS 19 Jan 18:27:57 18:31:28 26° 73° (ENE) 18:34:59 437.485
CUBEBUG 2 19 Jan 18:33:34 18:37:24 33° 73° (ENE) 18:41:22 437.445
LilacSat-2 19 Jan 18:34:03 18:37:15 24° 263° (W) 18:40:27 437.200
CUTE 1.7 + AOD 2 19 Jan 18:36:43 18:40:55 63° 77° (ENE) 18:45:09 437.475
XW-2C 19 Jan 18:38:20 18:41:25 23° 263° (W) 18:44:33 145.795 - 145.815
UWE-3 19 Jan 18:42:36 18:45:59 22° 71° (ENE) 18:49:27 435.000/436.395/437.385
CUTE-I 19 Jan 18:56:21 19:01:00 31° 262° (W) 19:05:40 437.470
ZACube-1 19 Jan 19:09:34 19:13:01 23° 71° (ENE) 19:16:32 437.345
AO-73 19 Jan 19:17:10 19:20:43 24° 72° (ENE) 19:24:20 145.935
KKS-1 19 Jan 19:18:04 19:18:40 10° 293° (WNW) 19:19:16 437.445
KAITUO 1B 19 Jan 19:19:59 19:20:19 10° 266° (W) 19:20:38 145.475/437.950
PCSat 19 Jan 19:23:43 19:28:18 27° 59° (ENE) 19:32:52 145.827
BEESAT 3 19 Jan 19:28:44 19:32:28 44° 61° (ENE) 19:36:07 437.485
STARS 19 Jan 19:36:11 19:38:58 17° 291° (WNW) 19:41:43 437.465
HO-68 19 Jan 19:46:22 19:52:38 33° 262° (W) 19:58:55 435.675
AAUSAT CUBESAT 2 19 Jan 19:48:50 19:52:58 73° 259° (W) 19:57:05 437.432
Oscar 11 19 Jan 19:51:37 19:55:38 37° 74° (ENE) 19:59:39 .
SRMSAT 19 Jan 19:53:31 19:56:01 13° 199° (SSW) 19:58:30 437.500
STRAND 1 19 Jan 19:55:00 20:00:10 80° 103° (ESE) 20:05:18 437.568
SEEDS 19 Jan 20:04:10 20:07:04 18° 265° (W) 20:09:56 437.485
nSIGHT-1 19 Jan 20:10:33 20:13:37 52° 131° (SE) 20:16:42 .
CUBEBUG 2 19 Jan 20:11:37 20:14:04 15° 266° (W) 20:16:33 437.445
BEESAT 2 19 Jan 20:13:13 20:16:51 33° 59° (ENE) 20:20:25 435.950
XW-2A 19 Jan 20:13:20 20:16:25 31° 262° (W) 20:19:31 145.665 - 145.685
ISS 19 Jan 20:18:00 20:21:02 37° 130° (SE) 20:24:05 437.550
UWE-3 19 Jan 20:18:49 20:22:16 23° 264° (W) 20:25:49 435.000/436.395/437.385
RS-15 19 Jan 20:18:52 20:27:27 26° 257° (WSW) 20:35:49 29.354- 29.394
DELFI C3 19 Jan 20:40:05 20:42:59 20° 72° (ENE) 20:45:55 145.870
FO-29 19 Jan 20:42:49 20:48:00 89° 103° (ESE) 20:53:22 435.910
ZACube-1 19 Jan 20:45:40 20:49:08 23° 264° (W) 20:52:40 437.345
AO-85 19 Jan 20:53:14 20:56:34 17° 54° (NE) 21:00:01 145.980
AO-73 19 Jan 20:53:27 20:56:48 21° 265° (W) 21:00:13 145.935
TIGRISAT 19 Jan 21:05:46 21:07:39 12° 93° (E) 21:09:32 435.000
PCSat 19 Jan 21:06:55 21:11:35 30° 252° (WSW) 21:16:14 145.827
UNISAT 6 19 Jan 21:19:13 21:22:43 21° 95° (E) 21:26:11 437.425
Oscar 11 19 Jan 21:29:47 21:31:48 13° 266° (W) 21:33:52 .
Max Valier Satellite 19 Jan 21:35:26 21:39:08 75° 79° (E) 21:42:52 145.860
YUBILEINY 19 Jan 21:44:52 21:46:57 11° 79° (E) 21:49:02 435.215
nSIGHT-1 19 Jan 21:48:54 21:49:59 11° 325° (NW) 21:51:05 .
BEESAT 2 19 Jan 21:52:18 21:54:10 13° 252° (WSW) 21:56:02 435.950
ISS 19 Jan 21:55:41 21:57:36 15° 324° (NW) 21:59:32 437.550
EO-88 19 Jan 21:57:31 22:01:10 85° 258° (WSW) 22:04:49 145.990 - 145.960
DELFI C3 19 Jan 22:14:43 22:17:34 19° 264° (W) 22:20:25 145.870
AO-85 19 Jan 22:32:14 22:37:12 52° 246° (WSW) 22:42:23 145.980
TIGRISAT 19 Jan 22:39:58 22:44:28 47° 285° (WNW) 22:48:57 435.000
UNISAT 6 19 Jan 22:55:17 22:59:20 29° 288° (WNW) 23:03:19 437.425
AIST 2D 19 Jan 23:07:55 23:10:56 28° 98° (E) 23:13:56 435.315
LO-87 19 Jan 23:21:03 23:24:32 60° 260° (W) 23:28:04 145.935 - 145.965
ESTCUBE 1 19 Jan 23:29:04 23:33:35 75° 258° (WSW) 23:38:06 437.505/2401.250
PRISM 19 Jan 23:30:34 23:34:31 51° 284° (WNW) 23:38:28 437.425
YUBILEINY 19 Jan 23:33:30 23:42:20 83° 94° (E) 23:51:11 435.215
POLYITAN 1 19 Jan 23:33:46 23:36:31 17° 95° (E) 23:39:15 437.675
VELOX 1 19 Jan 23:36:58 23:38:54 13° 68° (ENE) 23:40:50 145.980
SPROUT 19 Jan 23:41:50 23:45:26 28° 72° (ENE) 23:49:03 437.525
NANOSAT C BR1 19 Jan 23:50:01 23:53:26 23° 97° (E) 23:56:48 145.865
O/OREOS (USA 219) 19 Jan 23:55:26 23:58:43 20° 101° (ESE) 00:02:00 437.305
QB50P2 20 Jan 00:02:09 00:06:15 44° 99° (E) 00:10:19 145.880/145.840
EO-79 20 Jan 00:33:22 00:37:40 81° 283° (WNW) 00:41:55 145.935-145.965
DUCHIFAT 1 20 Jan 00:33:44 00:37:59 73° 101° (ESE) 00:42:12 145.980
AIST 2D 20 Jan 00:43:08 00:43:45 10° 290° (WNW) 00:44:22 435.315
AO-91 20 Jan 00:50:21 00:53:09 15° 96° (E) 00:56:04 145.960
Gurwin Techsat 1B 20 Jan 01:08:19 01:11:21 15° 94° (E) 01:14:24 435.225
POLYITAN 1 20 Jan 01:08:32 01:12:14 29° 287° (WNW) 01:15:55 437.675
VELOX 1 20 Jan 01:10:46 01:14:55 41° 260° (W) 01:19:04 145.980
SPROUT 20 Jan 01:18:31 01:21:15 17° 265° (W) 01:24:01 437.525
50 SAT 20 Jan 01:21:17 01:23:56 27° 74° (ENE) 01:26:35 437.505
UKube-1 20 Jan 01:22:10 01:25:28 22° 71° (ENE) 01:28:47 .
NANOSAT C BR1 20 Jan 01:25:44 01:28:56 21° 289° (WNW) 01:32:07 145.865
Oscar 19 20 Jan 01:30:27 01:35:13 37° 99° (E) 01:39:55 437.125/150
DX 1 20 Jan 01:30:30 01:34:41 50° 75° (ENE) 01:38:53 434.975-435.025
O/OREOS (USA 219) 20 Jan 01:34:06 01:37:53 26° 294° (WNW) 01:41:41 437.305
YUBILEINY 20 Jan 01:35:15 01:39:59 15° 290° (WNW) 01:44:44 435.215
NO-84 20 Jan 01:38:46 01:41:42 64° 50° (NE) 01:44:49 435.350 FM
BUGSAT 1 20 Jan 01:39:46 01:44:02 88° 279° (W) 01:48:16 437.445
QB50P2 20 Jan 01:40:12 01:41:34 11° 292° (WNW) 01:42:56 145.880/145.840
ITUPSAT 1 20 Jan 02:14:23 02:16:30 13° 67° (ENE) 02:18:38 437.325
AO-91 20 Jan 02:25:12 02:29:31 41° 285° (WNW) 02:34:13 145.960
AO-7 20 Jan 02:36:37 02:42:04 19° 96° (E) 02:47:28 .
Gurwin Techsat 1B 20 Jan 02:46:22 02:51:27 48° 286° (WNW) 02:56:30 435.225
BEESAT 20 Jan 02:52:20 02:56:39 36° 73° (ENE) 03:01:01 436.000
MOZHAYETS 4 20 Jan 02:53:08 02:57:43 69° 76° (ENE) 03:02:20
CUBESAT XI-V 20 Jan 02:55:24 02:58:05 15° 69° (ENE) 03:00:46 437.345
UKube-1 20 Jan 02:57:57 03:01:19 22° 263° (W) 03:04:41 .
Oscar 19 20 Jan 03:10:34 03:14:11 20° 292° (WNW) 03:17:47 437.125/150
FALCONSAT 3 20 Jan 03:40:46 03:44:16 42° 152° (SSE) 03:47:45 435.103
ITUPSAT 1 20 Jan 03:49:13 03:53:49 49° 260° (W) 03:58:27 437.325
ITAMSAT 1 20 Jan 04:13:00 04:18:12 72° 102° (ESE) 04:23:24 435.822/435.867
nSIGHT-1 20 Jan 04:17:46 04:20:45 38° 43° (NE) 04:23:45 .
ISS 20 Jan 04:26:46 04:29:43 30° 42° (NE) 04:32:39 437.550
AO-7 20 Jan 04:26:57 04:35:16 72° 289° (WNW) 04:43:31 .
CUBESAT XI-V 20 Jan 04:30:38 04:35:03 40° 261° (W) 04:39:27 437.345
KKS-1 20 Jan 04:30:52 04:34:21 23° 71° (ENE) 04:37:50 437.445
BEESAT 20 Jan 04:31:28 04:34:27 17° 265° (W) 04:37:27 436.000
DOVE 4 20 Jan 04:42:15 04:46:16 33° 99° (E) 04:50:29 437.250
STARS 20 Jan 04:51:07 04:53:19 14° 68° (ENE) 04:55:32 437.465
FALCONSAT 3 20 Jan 05:19:45 05:23:19 48° 346° (NNW) 05:26:53 435.103
M-CUBED/EXP-1 PRIME 20 Jan 05:24:55 05:28:12 89° 291° (WNW) 05:31:26 437.505
XW-2D 20 Jan 05:30:13 05:31:28 11° 94° (E) 05:32:41 145.860 - 145.880
CUTE-I 20 Jan 05:40:40 05:43:50 16° 95° (E) 05:46:59 437.470
XW-2B 20 Jan 05:46:27 05:49:07 19° 96° (E) 05:51:47 145.730 - 145.750
SO-50 20 Jan 05:55:02 05:59:22 54° 299° (WNW) 06:03:47 436.795
nSIGHT-1 20 Jan 05:55:37 05:56:36 11° 235° (SW) 05:57:36 .
ITAMSAT 1 20 Jan 05:56:04 05:56:59 10° 295° (WNW) 05:57:53 435.822/435.867
ISS 20 Jan 06:04:00 06:05:57 15° 234° (SW) 06:07:54 437.550
KKS-1 20 Jan 06:07:19 06:10:45 22° 263° (W) 06:14:12 437.445
LilacSat-2 20 Jan 06:12:23 06:16:04 50° 100° (E) 06:19:42 437.200
RS-15 20 Jan 06:13:42 06:19:15 14° 99° (E) 06:24:48 29.354- 29.394
XW-2C 20 Jan 06:15:51 06:19:30 51° 100° (E) 06:23:08 145.795 - 145.815
DOVE 4 20 Jan 06:20:56 06:23:41 16° 289° (WNW) 06:26:32 437.250
AO-7 20 Jan 06:24:10 06:26:32 11° 306° (NW) 06:28:54 .
STARS 20 Jan 06:25:15 06:29:16 37° 261° (W) 06:33:19 437.465
CUTE 1.7 + AOD 2 20 Jan 06:28:38 06:31:22 17° 95° (E) 06:34:07 437.475
CUBEBUG 2 20 Jan 06:31:46 06:33:53 13° 93° (E) 06:36:00 437.445
FO-29 20 Jan 06:49:07 06:54:11 22° 69° (ENE) 06:58:51 435.910
KAITUO 1B 20 Jan 06:53:02 06:56:40 66° 283° (WNW) 07:00:18 145.475/437.950
XW-2F 20 Jan 06:53:12 06:56:46 46° 284° (WNW) 07:00:19 145.980 - 146.000
FALCONSAT 3 20 Jan 06:59:27 07:02:46 31° 1° (N) 07:06:06 435.103
XW-2D 20 Jan 07:02:20 07:05:38 30° 286° (WNW) 07:08:54 145.860 - 145.880
STRAND 1 20 Jan 07:04:45 07:09:44 60° 75° (ENE) 07:14:44 437.568
NUDT-PHONESAT 20 Jan 07:05:51 07:09:21 44° 284° (WNW) 07:12:49 437.300
CUTE-I 20 Jan 07:18:55 07:24:00 47° 287° (WNW) 07:29:04 437.470
HO-68 20 Jan 07:19:33 07:26:42 70° 103° (ESE) 07:33:49 435.675
XW-2B 20 Jan 07:20:27 07:23:07 19° 288° (WNW) 07:25:46 145.730 - 145.750
AAUSAT CUBESAT 2 20 Jan 07:37:09 07:40:35 26° 97° (E) 07:44:01 437.432
XW-2A 20 Jan 07:40:48 07:43:19 20° 97° (E) 07:45:49 145.665 - 145.685
Oscar 11 20 Jan 07:47:08 07:48:20 11° 93° (E) 07:49:32 .
SEEDS 20 Jan 07:52:15 07:56:22 67° 284° (WNW) 08:00:29 437.485
CUTE 1.7 + AOD 2 20 Jan 08:03:37 08:07:08 27° 287° (WNW) 08:10:39 437.475
CUBEBUG 2 20 Jan 08:06:04 08:10:37 46° 285° (WNW) 08:15:07 437.445
UWE-3 20 Jan 08:13:09 08:17:48 73° 283° (WNW) 08:22:22 435.000/436.395/437.385
RS-15 20 Jan 08:17:38 08:29:54 80° 114° (ESE) 08:42:10 29.354- 29.394
JUGNU 20 Jan 08:31:19 08:32:43 11° 160° (SSE) 08:34:06 437.505
FO-29 20 Jan 08:31:52 08:38:53 52° 259° (W) 08:45:09 435.910
FALCONSAT 3 20 Jan 08:38:36 08:42:13 54° 16° (NNE) 08:45:48 435.103
ZACube-1 20 Jan 08:38:49 08:43:21 74° 283° (WNW) 08:47:46 437.345
AO-73 20 Jan 08:46:08 08:50:38 69° 284° (WNW) 08:55:01 145.935
STRAND 1 20 Jan 08:47:52 08:49:10 11° 267° (W) 08:50:28 437.568
HO-68 20 Jan 09:09:15 09:13:40 18° 298° (WNW) 09:18:06 435.675
BEESAT 3 20 Jan 09:12:04 09:15:36 32° 112° (ESE) 09:19:10 437.485
AAUSAT CUBESAT 2 20 Jan 09:13:06 09:15:46 17° 289° (WNW) 09:18:27 437.432
Max Valier Satellite 20 Jan 09:13:38 09:14:24 10° 94° (E) 09:15:08 145.860
XW-2A 20 Jan 09:14:03 09:15:45 13° 289° (WNW) 09:17:26 145.665 - 145.685
Oscar 11 20 Jan 09:20:31 09:24:36 43° 285° (WNW) 09:28:39 .
TIGRISAT 20 Jan 09:32:00 09:36:19 70° 77° (ENE) 09:40:46 435.000
EO-88 20 Jan 09:33:33 09:35:05 12° 95° (E) 09:36:36 145.990 - 145.960
UNISAT 6 20 Jan 09:47:05 09:51:25 68° 260° (W) 09:55:52 437.425
YUBILEINY 20 Jan 09:52:16 09:59:42 30° 76° (ENE) 10:07:02 435.215
DELFI C3 20 Jan 09:55:53 09:59:48 79° 100° (E) 10:03:44 145.870
PCSat 20 Jan 09:58:19 10:03:43 85° 112° (ESE) 10:09:09 145.827
BEESAT 2 20 Jan 09:58:22 10:01:40 25° 111° (ESE) 10:04:59 435.950
O/OREOS (USA 219) 20 Jan 10:11:37 10:14:13 15° 63° (ENE) 10:16:48 437.305
PRISM 20 Jan 10:13:22 10:17:13 43° 75° (ENE) 10:21:05 437.425
JUGNU 20 Jan 10:16:40 10:21:08 23° 168° (SSE) 10:25:37 437.505
FALCONSAT 3 20 Jan 10:17:50 10:21:12 35° 209° (SSW) 10:24:33 435.103
RS-15 20 Jan 10:33:40 10:43:38 28° 314° (NW) 10:53:33 29.354- 29.394
Max Valier Satellite 20 Jan 10:44:57 10:48:14 31° 285° (WNW) 10:51:29 145.860
QB50P2 20 Jan 10:49:56 10:52:25 15° 70° (ENE) 10:54:55 145.880/145.840
BEESAT 3 20 Jan 10:50:45 10:53:09 15° 305° (NW) 10:55:33 437.485
LO-87 20 Jan 10:54:32 10:56:46 16° 95° (E) 10:58:59 145.935 - 145.965
AO-85 20 Jan 11:03:09 11:05:10 14° 108° (ESE) 11:07:13 145.980
EO-88 20 Jan 11:05:37 11:08:40 26° 286° (WNW) 11:11:42 145.990 - 145.960
AIST 2D 20 Jan 11:08:02 11:11:34 81° 259° (W) 11:15:05 435.315
EO-79 20 Jan 11:19:42 11:23:26 32° 73° (ENE) 11:27:11 145.935-145.965
DUCHIFAT 1 20 Jan 11:19:51 11:23:09 23° 72° (ENE) 11:26:29 145.980
ESTCUBE 1 20 Jan 11:27:43 11:31:50 36° 99° (E) 11:35:55 437.505/2401.250
BEESAT 2 20 Jan 11:36:22 11:39:17 19° 304° (NW) 11:42:13 435.950
PCSat 20 Jan 11:46:27 11:47:43 11° 309° (NW) 11:48:58 145.827
YUBILEINY 20 Jan 11:48:25 11:56:31 45° 271° (W) 12:04:36 435.215
O/OREOS (USA 219) 20 Jan 11:49:35 11:53:40 36° 256° (WSW) 11:57:46 437.305
POLYITAN 1 20 Jan 11:53:56 11:58:09 90° 258° (WSW) 12:02:24 437.675
JUGNU 20 Jan 12:04:34 12:09:39 31° 178° (S) 12:14:46 437.505
NANOSAT C BR1 20 Jan 12:10:17 12:14:26 63° 259° (W) 12:18:37 145.865
BUGSAT 1 20 Jan 12:23:42 12:27:05 26° 72° (ENE) 12:30:30 437.445
QB50P2 20 Jan 12:24:08 12:27:52 31° 262° (W) 12:31:39 145.880/145.840
Gurwin Techsat 1B 20 Jan 12:24:11 12:26:55 14° 66° (ENE) 12:29:39 435.225
SRMSAT 20 Jan 12:24:30 12:28:17 17° 164° (SSE) 12:32:04 437.500
LO-87 20 Jan 12:27:15 12:30:02 21° 287° (WNW) 12:32:47 145.935 - 145.965
Oscar 19 20 Jan 12:41:25 12:45:54 30° 71° (ENE) 12:50:22 437.125/150
AO-85 20 Jan 12:41:42 12:45:10 30° 303° (WNW) 12:48:48 145.980
DUCHIFAT 1 20 Jan 12:55:34 12:58:40 20° 264° (W) 13:01:47 145.980
EO-79 20 Jan 12:56:51 12:59:10 15° 265° (W) 13:01:32 145.935-145.965
ESTCUBE 1 20 Jan 13:05:42 13:08:16 15° 291° (WNW) 13:10:50 437.505/2401.250
VELOX 1 20 Jan 13:06:16 13:10:35 56° 101° (E) 13:14:54 145.980
SPROUT 20 Jan 13:08:10 13:12:26 63° 283° (WNW) 13:16:39 437.525
AO-91 20 Jan 13:17:18 13:20:40 76° 78° (ENE) 13:24:03 145.960
DX 1 20 Jan 13:26:02 13:28:23 14° 95° (E) 13:30:43 434.975-435.025
AO-7 20 Jan 13:30:34 13:35:16 16° 57° (ENE) 13:39:57 .
JUGNU 20 Jan 13:53:18 13:58:13 28° 188° (S) 14:03:09 437.505
BUGSAT 1 20 Jan 13:59:49 14:02:22 16° 265° (W) 14:04:58 437.445
Gurwin Techsat 1B 20 Jan 14:01:09 14:06:19 55° 259° (W) 14:11:32 435.225
SRMSAT 20 Jan 14:11:52 14:16:56 29° 172° (S) 14:22:01 437.500
50 SAT 20 Jan 14:12:25 14:15:27 52° 100° (E) 14:18:29 437.505
Oscar 19 20 Jan 14:20:56 14:25:06 24° 263° (W) 14:29:16 437.125/150
SO-50 20 Jan 14:32:08 14:36:04 26° 56° (NE) 14:40:04 436.795
UKube-1 20 Jan 14:49:36 14:53:55 86° 286° (WNW) 14:58:14 .
MOZHAYETS 4 20 Jan 14:54:44 14:58:34 26° 97° (E) 15:02:22
BEESAT 20 Jan 14:59:36 15:02:23 15° 95° (E) 15:05:07 436.000
DX 1 20 Jan 15:00:38 15:04:35 34° 287° (WNW) 15:08:31 434.975-435.025
